Weather History for KMMK - January, 2013

Change the Weather History Date:

Saturday, January 19, 2013

  Actual Average (KHVN) Record (KHVN)
Temperature  
Mean Temperature 32 °F -  
Max Temperature 44 °F 32 °F 73 °F (1999)
Min Temperature 19 °F 20 °F 2 °F (1983)
Degree Days  
Heating Degree Days 34    
Moisture  
Dew Point 23 °F    
Average Humidity 59    
Maximum Humidity 75    
Minimum Humidity 49    
Precipitation  
Precipitation 0.00 in - - ()
Sea Level Pressure  
Sea Level Pressure 30.16 in    
Wind  
Wind Speed 8 mph (South)    
Max Wind Speed 17 mph    
Max Gust Speed 25 mph    
Visibility 10 miles    
Events      
Averages and records for this station are not official NWS values.
T = Trace of Precipitation, MM = Missing Value Source: NWS Daily Summary

Daily Weather History Graph

Daily Weather History Graph

Search for Another Location

Airport or City:

Trip Planner

Search our weather history database for the weather conditions in past years. The results will help you decide how hot, cold, wet, or windy it might be!

Date:

Astronomy

Jan. 19, 2013 Rise Set
Actual Time 7:13 AM EST 4:51 PM EST
Civil Twilight 6:43 AM EST 5:21 PM EST
Nautical Twilight 6:09 AM EST 5:55 PM EST
Astronomical Twilight 5:36 AM EST 6:28 PM EST
Moon 11:16 AM EST (1/19) 12:43 AM EST (1/19)
Length of Visible Light 10h 38m
Length of Day
9h 38m
First Quarter, 57% of the Moon is Illuminated
Jan 19
First Quarter
Jan 26
Full
Feb 3
Last Quarter
Feb 10
New
Feb 17
First Quarter

Hourly Weather History & Observations

Time (EST) Temp. Windchill Dew Point Humidity Pressure Visibility Wind Dir Wind Speed Gust Speed Precip Events Conditions
12:53 AM 19.0 °F - 10.0 °F 68% 30.39 in 10.0 mi Calm Calm - N/A   Scattered Clouds
1:53 AM 26.1 °F 18.4 °F 12.9 °F 58% 30.37 in 10.0 mi South 6.9 mph - N/A   Overcast
2:53 AM 30.0 °F 20.5 °F 14.0 °F 51% 30.35 in 10.0 mi SSW 11.5 mph 19.6 mph N/A   Overcast
3:53 AM 30.9 °F 22.8 °F 14.0 °F 50% 30.33 in 10.0 mi SSW 9.2 mph - N/A   Mostly Cloudy
4:53 AM 30.9 °F 22.2 °F 16.0 °F 54% 30.30 in 10.0 mi South 10.4 mph - N/A   Mostly Cloudy
5:53 AM 33.1 °F 23.0 °F 17.1 °F 52% 30.27 in 10.0 mi SSW 15.0 mph 25.3 mph N/A   Mostly Cloudy
6:53 AM 33.1 °F 24.9 °F 19.0 °F 56% 30.27 in 10.0 mi SSW 10.4 mph 18.4 mph N/A   Partly Cloudy
7:53 AM 35.1 °F 26.4 °F 21.0 °F 57% 30.26 in 10.0 mi South 12.7 mph 21.9 mph N/A   Overcast
8:53 AM 36.0 °F 26.7 °F 21.9 °F 57% 30.26 in 10.0 mi SSW 15.0 mph 21.9 mph N/A   Partly Cloudy
9:53 AM 37.0 °F 27.4 °F 23.0 °F 57% 30.24 in 10.0 mi South 17.3 mph 25.3 mph N/A   Partly Cloudy
10:53 AM 39.0 °F 32.3 °F 23.0 °F 53% 30.21 in 10.0 mi South 10.4 mph 20.7 mph N/A   Clear
11:53 AM 41.0 °F 34.3 °F 24.1 °F 51% 30.16 in 10.0 mi SSW 11.5 mph 25.3 mph N/A   Clear
12:53 PM 41.0 °F 33.1 °F 25.0 °F 53% 30.12 in 10.0 mi South 15.0 mph 20.7 mph N/A   Scattered Clouds
1:53 PM 43.0 °F 37.7 °F 25.0 °F 49% 30.09 in 10.0 mi SSW 9.2 mph 17.3 mph N/A   Clear
2:53 PM 44.1 °F 39.0 °F 26.1 °F 49% 30.07 in 10.0 mi SSW 9.2 mph - N/A   Clear
3:53 PM 43.0 °F 40.3 °F 26.1 °F 51% 30.06 in 10.0 mi South 4.6 mph - N/A   Partly Cloudy
4:53 PM 41.0 °F 38.0 °F 25.0 °F 53% 30.05 in 10.0 mi South 4.6 mph - N/A   Clear
5:53 PM 34.0 °F - 27.0 °F 75% 30.04 in 10.0 mi Calm Calm - N/A   Clear
6:53 PM 36.0 °F 32.1 °F 27.0 °F 70% 30.03 in 10.0 mi South 4.6 mph - N/A   Clear
7:53 PM 41.0 °F 35.8 °F 33.1 °F 73% 30.01 in 10.0 mi South 8.1 mph - N/A   Clear
8:53 PM 39.9 °F 36.7 °F 32.0 °F 73% 29.99 in 10.0 mi South 4.6 mph - N/A   Clear
9:53 PM 39.9 °F 36.7 °F 32.0 °F 73% 29.97 in 10.0 mi South 4.6 mph - N/A   Clear
10:53 PM 41.0 °F 37.1 °F 30.9 °F 67% 29.94 in 10.0 mi South 5.8 mph - N/A   Clear